Time,TemperatureF,DewpointF,PressureIn,WindDirection,WindDirectionDegrees,WindSpeedMPH,WindSpeedGustMPH,Humidity,HourlyPrecipIn,Conditions,Clouds,dailyrainin,SoftwareType,DateUTC
2013-09-10 00:03:00,54.7,49.4,29.44,East,90,0.0,0.0,82,-99.99,,,-99.99,WSDL version 423,2013-09-10 04:03:00,
2013-09-10 00:08:00,54.6,49.3,29.44,East,90,0.0,0.0,82,-99.99,,,-99.99,WSDL version 423,2013-09-10 04:08:00,
2013-09-10 00:13:00,54.5,49.2,29.44,East,90,0.0,0.0,82,-99.99,,,-99.99,WSDL version 423,2013-09-10 04:13:00,
2013-09-10 00:18:00,54.3,48.9,29.44,ENE,68,0.0,0.0,82,-99.99,,,-99.99,WSDL version 423,2013-09-10 04:18:00,
2013-09-10 00:23:00,54.1,48.9,29.44,ENE,68,0.0,0.0,83,-99.99,,,-99.99,WSDL version 423,2013-09-10 04:23:00,
2013-09-10 00:28:00,54.1,49.2,29.44,NNW,338,0.0,0.0,83,-99.99,,,-99.99,WSDL version 423,2013-09-10 04:28:00,
2013-09-10 00:33:00,54.1,49.4,29.44,NNW,338,0.0,0.0,84,-99.99,,,-99.99,WSDL version 423,2013-09-10 04:33:00,
2013-09-10 00:38:00,54.1,49.7,29.41,NNE,23,0.0,0.0,86,-99.99,,,-99.99,WSDL version 423,2013-09-10 04:38:00,
2013-09-10 00:43:00,54.2,49.9,29.41,NNE,23,0.0,0.0,86,-99.99,,,-99.99,WSDL version 423,2013-09-10 04:43:00,
2013-09-10 00:48:00,54.3,50.1,29.41,ENE,68,0.0,0.0,87,-99.99,,,-99.99,WSDL version 423,2013-09-10 04:48:00,
2013-09-10 00:53:00,54.3,50.1,29.44,NW,320,0.0,0.0,86,-99.99,,,-99.99,WSDL version 423,2013-09-10 04:53:00,
2013-09-10 00:58:00,54.3,50.1,29.44,NW,315,0.0,0.0,86,-99.99,,,-99.99,WSDL version 423,2013-09-10 04:58:00,
2013-09-10 01:03:00,54.4,50.7,29.44,NW,315,0.0,0.0,88,-99.99,,,-99.99,WSDL version 423,2013-09-10 05:03:00,
2013-09-10 01:08:00,54.5,51.0,29.44,NW,315,0.0,0.0,88,-99.99,,,-99.99,WSDL version 423,2013-09-10 05:08:00,
2013-09-10 01:13:00,54.5,50.7,29.44,NW,315,0.0,0.0,87,-99.99,,,-99.99,WSDL version 423,2013-09-10 05:13:00,
2013-09-10 01:18:00,54.5,50.7,29.44,NW,315,0.0,0.0,88,-99.99,,,-99.99,WSDL version 423,2013-09-10 05:18:00,
2013-09-10 01:23:00,54.5,50.8,29.44,NW,315,0.0,0.0,87,-99.99,,,-99.99,WSDL version 423,2013-09-10 05:23:00,
2013-09-10 01:28:00,54.5,50.8,29.44,NNW,338,0.0,0.0,88,-99.99,,,-99.99,WSDL version 423,2013-09-10 05:28:00,
2013-09-10 01:33:00,54.4,50.7,29.44,NNW,338,0.0,0.0,87,-99.99,,,-99.99,WSDL version 423,2013-09-10 05:33:00,
2013-09-10 01:43:00,54.1,50.3,29.41,NNW,338,0.0,0.0,88,-99.99,,,-99.99,WSDL version 423,2013-09-10 05:43:00,
2013-09-10 01:48:00,53.8,50.4,29.41,NW,325,0.0,0.0,89,-99.99,,,-99.99,WSDL version 423,2013-09-10 05:48:00,
2013-09-10 01:53:00,53.8,50.6,29.41,NNW,338,0.0,0.0,89,-99.99,,,-99.99,WSDL version 423,2013-09-10 05:53:00,
2013-09-10 01:58:00,53.8,50.8,29.41,NNW,338,0.0,0.0,90,-99.99,,,-99.99,WSDL version 423,2013-09-10 05:58:00,
2013-09-10 02:03:00,53.8,50.9,29.41,NNW,347,0.0,0.0,90,-99.99,,,-99.99,WSDL version 423,2013-09-10 06:03:00,
2013-09-10 02:08:00,53.8,51.0,29.41,North,360,0.0,0.0,91,-99.99,,,-99.99,WSDL version 423,2013-09-10 06:08:00,
2013-09-10 02:13:00,53.8,51.3,29.41,North,360,0.0,0.0,91,-99.99,,,-99.99,WSDL version 423,2013-09-10 06:13:00,
2013-09-10 02:18:00,53.8,51.6,29.41,North,360,0.0,0.0,92,-99.99,,,-99.99,WSDL version 423,2013-09-10 06:18:00,
2013-09-10 02:23:00,53.8,51.6,29.41,North,360,0.0,0.0,92,-99.99,,,-99.99,WSDL version 423,2013-09-10 06:23:00,
2013-09-10 02:28:00,54.0,51.8,29.41,North,360,0.0,0.0,92,-99.99,,,-99.99,WSDL version 423,2013-09-10 06:28:00,
2013-09-10 02:33:00,54.0,51.8,29.41,NNW,338,0.0,0.0,92,-99.99,,,-99.99,WSDL version 423,2013-09-10 06:33:00,
2013-09-10 02:38:00,54.1,51.9,29.41,NNW,338,0.0,0.0,92,-99.99,,,-99.99,WSDL version 423,2013-09-10 06:38:00,
2013-09-10 02:43:00,54.1,51.8,29.41,NNW,338,0.0,0.0,92,-99.99,,,-99.99,WSDL version 423,2013-09-10 06:43:00,
2013-09-10 02:48:00,54.0,51.8,29.41,NNW,338,0.0,0.0,92,-99.99,,,-99.99,WSDL version 423,2013-09-10 06:48:00,
2013-09-10 02:53:00,54.0,51.8,29.38,NNW,338,0.0,0.0,93,-99.99,,,-99.99,WSDL version 423,2013-09-10 06:53:00,
2013-09-10 02:58:00,54.0,52.1,29.38,NNW,338,0.0,0.0,93,-99.99,,,-99.99,WSDL version 423,2013-09-10 06:58:00,
2013-09-10 03:03:00,54.0,52.1,29.38,NNW,338,0.0,0.0,93,-99.99,,,-99.99,WSDL version 423,2013-09-10 07:03:00,
2013-09-10 03:08:00,54.0,52.1,29.38,NNW,338,0.0,0.0,94,-99.99,,,-99.99,WSDL version 423,2013-09-10 07:08:00,
2013-09-10 03:13:00,54.0,52.4,29.38,NW,315,0.0,0.0,94,-99.99,,,-99.99,WSDL version 423,2013-09-10 07:13:00,
2013-09-10 03:18:00,54.0,52.4,29.38,NW,315,0.0,0.0,94,-99.99,,,-99.99,WSDL version 423,2013-09-10 07:18:00,
2013-09-10 03:23:00,54.0,52.1,29.41,NW,315,0.0,0.0,93,-99.99,,,-99.99,WSDL version 423,2013-09-10 07:23:00,
2013-09-10 03:28:00,53.9,52.0,29.41,NW,315,0.0,0.0,93,-99.99,,,-99.99,WSDL version 423,2013-09-10 07:28:00,
2013-09-10 03:33:00,53.8,51.9,29.41,NW,315,0.0,0.0,93,-99.99,,,-99.99,WSDL version 423,2013-09-10 07:33:00,
2013-09-10 03:38:00,53.7,52.0,29.38,NW,315,0.0,0.0,94,-99.99,,,-99.99,WSDL version 423,2013-09-10 07:38:00,
2013-09-10 03:43:00,53.7,52.2,29.38,NW,315,0.0,0.0,96,-99.99,,,-99.99,WSDL version 423,2013-09-10 07:43:00,
2013-09-10 03:48:00,53.7,52.5,29.38,NW,315,0.0,0.0,96,-99.99,,,-99.99,WSDL version 423,2013-09-10 07:48:00,
2013-09-10 03:53:00,53.6,52.3,29.38,NW,315,0.0,0.0,94,-99.99,,,-99.99,WSDL version 423,2013-09-10 07:53:00,
2013-09-10 03:58:00,53.6,52.1,29.38,NW,315,0.0,0.0,96,-99.99,,,-99.99,WSDL version 423,2013-09-10 07:58:00,
2013-09-10 04:03:00,53.5,52.2,29.38,NW,315,0.0,0.0,96,-99.99,,,-99.99,WSDL version 423,2013-09-10 08:03:00,
2013-09-10 04:08:00,53.5,52.3,29.38,NNW,338,0.0,0.0,96,-99.99,,,-99.99,WSDL version 423,2013-09-10 08:08:00,
2013-09-10 04:13:00,53.6,52.5,29.38,NNW,338,0.0,0.0,97,-99.99,,,-99.99,WSDL version 423,2013-09-10 08:13:00,
2013-09-10 04:18:00,53.5,52.6,29.38,NNW,338,0.0,0.0,97,-99.99,,,-99.99,WSDL version 423,2013-09-10 08:18:00,
2013-09-10 04:23:00,53.4,52.5,29.38,NNW,338,0.0,0.0,97,-99.99,,,-99.99,WSDL version 423,2013-09-10 08:23:00,
2013-09-10 04:28:00,53.6,52.9,29.38,NNW,338,0.0,0.0,98,-99.99,,,-99.99,WSDL version 423,2013-09-10 08:28:00,
2013-09-10 04:33:00,53.6,53.0,29.38,NE,40,0.0,0.0,98,-99.99,,,-99.99,WSDL version 423,2013-09-10 08:33:00,
2013-09-10 04:38:00,53.6,53.0,29.38,North,352,0.0,0.0,98,-99.99,,,-99.99,WSDL version 423,2013-09-10 08:38:00,
2013-09-10 04:43:00,53.6,53.2,29.38,NNW,328,0.0,0.0,99,-99.99,,,-99.99,WSDL version 423,2013-09-10 08:43:00,
2013-09-10 04:48:00,53.6,53.3,29.38,NNW,345,0.0,0.0,99,-99.99,,,-99.99,WSDL version 423,2013-09-10 08:48:00,
2013-09-10 04:53:00,53.6,53.5,29.38,NNW,346,0.0,0.0,100,-99.99,,,-99.99,WSDL version 423,2013-09-10 08:53:00,
2013-09-10 04:58:00,53.5,53.5,29.38,NNW,345,0.0,0.0,100,-99.99,,,-99.99,WSDL version 423,2013-09-10 08:58:00,
2013-09-10 05:03:00,53.6,53.6,29.38,NNE,23,0.0,0.0,100,-99.99,,,-99.99,WSDL version 423,2013-09-10 09:03:00,
2013-09-10 05:08:00,53.6,53.6,29.38,East,90,0.0,0.0,100,-99.99,,,-99.99,WSDL version 423,2013-09-10 09:08:00,
2013-09-10 05:13:00,53.8,53.8,29.38,North,6,0.0,0.0,100,-99.99,,,-99.99,WSDL version 423,2013-09-10 09:13:00,
2013-09-10 05:18:00,53.8,53.8,29.38,North,360,0.0,0.0,100,-99.99,,,-99.99,WSDL version 423,2013-09-10 09:18:00,
2013-09-10 05:23:00,53.8,53.8,29.38,North,360,0.0,0.0,100,-99.99,,,-99.99,WSDL version 423,2013-09-10 09:23:00,
2013-09-10 05:28:00,54.0,54.0,29.38,North,360,0.0,0.0,100,-99.99,,,-99.99,WSDL version 423,2013-09-10 09:28:00,
2013-09-10 05:33:00,54.0,54.0,29.38,North,360,0.0,0.0,100,-99.99,,,-99.99,WSDL version 423,2013-09-10 09:33:00,
2013-09-10 05:38:00,53.9,53.9,29.38,North,360,0.0,0.0,100,-99.99,,,-99.99,WSDL version 423,2013-09-10 09:38:00,
2013-09-10 05:43:00,54.0,54.0,29.38,North,360,0.0,0.0,100,-99.99,,,-99.99,WSDL version 423,2013-09-10 09:43:00,
2013-09-10 05:48:00,54.0,54.0,29.38,North,360,0.0,0.0,100,-99.99,,,-99.99,WSDL version 423,2013-09-10 09:48:00,
2013-09-10 05:53:00,54.1,54.1,29.38,North,360,0.0,0.0,100,-99.99,,,-99.99,WSDL version 423,2013-09-10 09:53:00,
2013-09-10 05:58:00,54.1,54.1,29.38,North,360,0.0,0.0,100,-99.99,,,-99.99,WSDL version 423,2013-09-10 09:58:00,
2013-09-10 06:03:00,54.1,54.1,29.38,North,360,0.0,0.0,100,-99.99,,,-99.99,WSDL version 423,2013-09-10 10:03:00,
2013-09-10 06:08:00,54.1,54.1,29.38,North,360,0.0,0.0,100,-99.99,,,-99.99,WSDL version 423,2013-09-10 10:08:00,
2013-09-10 06:13:00,54.1,54.1,29.38,North,360,0.0,0.0,100,-99.99,,,-99.99,WSDL version 423,2013-09-10 10:13:00,
2013-09-10 06:18:00,54.1,54.1,29.38,North,360,0.0,0.0,100,-99.99,,,-99.99,WSDL version 423,2013-09-10 10:18:00,
2013-09-10 06:28:00,54.3,54.3,29.38,North,360,0.0,0.0,100,-99.99,,,-99.99,WSDL version 423,2013-09-10 10:28:00,
2013-09-10 06:33:00,54.3,54.3,29.38,North,360,0.0,0.0,100,-99.99,,,-99.99,WSDL version 423,2013-09-10 10:33:00,
2013-09-10 06:38:00,54.3,54.3,29.38,North,360,0.0,0.0,100,-99.99,,,-99.99,WSDL version 423,2013-09-10 10:38:00,
2013-09-10 06:43:00,54.3,54.3,29.38,NNW,338,0.0,0.0,100,-99.99,,,-99.99,WSDL version 423,2013-09-10 10:43:00,
2013-09-10 06:48:00,54.2,54.2,29.38,NNW,338,0.0,0.0,100,-99.99,,,-99.99,WSDL version 423,2013-09-10 10:48:00,
2013-09-10 06:53:00,54.3,54.3,29.38,NW,325,0.0,0.0,100,-99.99,,,-99.99,WSDL version 423,2013-09-10 10:53:00,
2013-09-10 06:58:00,54.1,54.1,29.38,NNW,338,0.0,0.0,100,-99.99,,,-99.99,WSDL version 423,2013-09-10 10:58:00,
2013-09-10 07:03:00,54.3,54.3,29.38,NNW,338,0.0,0.0,100,-99.99,,,-99.99,WSDL version 423,2013-09-10 11:03:00,
2013-09-10 07:08:00,54.3,54.3,29.38,NNW,338,0.0,0.0,100,-99.99,,,-99.99,WSDL version 423,2013-09-10 11:08:00,
2013-09-10 07:13:00,54.3,54.3,29.38,North,349,0.0,0.0,100,-99.99,,,-99.99,WSDL version 423,2013-09-10 11:13:00,
2013-09-10 07:18:00,54.3,54.3,29.38,NNW,345,0.0,0.0,100,-99.99,,,-99.99,WSDL version 423,2013-09-10 11:18:00,
2013-09-10 07:23:00,54.3,54.3,29.38,NNW,338,0.0,0.0,100,-99.99,,,-99.99,WSDL version 423,2013-09-10 11:23:00,
2013-09-10 07:28:00,54.1,54.1,29.38,NNW,340,0.0,0.0,100,-99.99,,,-99.99,WSDL version 423,2013-09-10 11:28:00,
2013-09-10 07:33:00,54.1,54.1,29.38,NNW,338,0.0,0.0,100,-99.99,,,-99.99,WSDL version 423,2013-09-10 11:33:00,
2013-09-10 07:38:00,54.1,54.1,29.38,North,3,0.0,0.0,100,-99.99,,,-99.99,WSDL version 423,2013-09-10 11:38:00,
2013-09-10 07:43:00,54.2,54.2,29.38,North,354,0.0,0.0,100,-99.99,,,-99.99,WSDL version 423,2013-09-10 11:43:00,
2013-09-10 07:48:00,54.3,54.3,29.38,NNW,347,0.0,0.0,100,-99.99,,,-99.99,WSDL version 423,2013-09-10 11:48:00,
2013-09-10 07:53:00,54.3,54.3,29.35,NNW,341,0.0,0.0,100,-99.99,,,-99.99,WSDL version 423,2013-09-10 11:53:00,
2013-09-10 07:58:00,54.3,54.3,29.35,NNW,338,0.0,0.0,100,-99.99,,,-99.99,WSDL version 423,2013-09-10 11:58:00,
2013-09-10 08:03:00,54.3,54.3,29.35,North,354,0.0,0.0,100,-99.99,,,-99.99,WSDL version 423,2013-09-10 12:03:00,
2013-09-10 08:08:00,54.3,54.3,29.38,NE,50,0.0,0.0,100,-99.99,,,-99.99,WSDL version 423,2013-09-10 12:08:00,
2013-09-10 08:13:00,54.4,54.4,29.38,NNE,28,0.0,0.0,100,-99.99,,,-99.99,WSDL version 423,2013-09-10 12:13:00,
2013-09-10 08:18:00,54.5,54.5,29.38,NW,315,0.0,0.0,100,-99.99,,,-99.99,WSDL version 423,2013-09-10 12:18:00,
2013-09-10 08:23:00,54.5,54.5,29.38,North,360,0.0,0.0,100,-99.99,,,-99.99,WSDL version 423,2013-09-10 12:23:00,
2013-09-10 08:28:00,54.6,54.6,29.38,NW,315,0.0,0.0,100,-99.99,,,-99.99,WSDL version 423,2013-09-10 12:28:00,
2013-09-10 08:33:00,54.7,54.7,29.38,NNE,23,0.0,0.0,100,-99.99,,,-99.99,WSDL version 423,2013-09-10 12:33:00,
2013-09-10 08:38:00,54.9,54.9,29.38,North,11,0.0,0.0,100,-99.99,,,-99.99,WSDL version 423,2013-09-10 12:38:00,
2013-09-10 08:43:00,54.9,54.9,29.38,North,360,0.0,0.0,100,-99.99,,,-99.99,WSDL version 423,2013-09-10 12:43:00,
2013-09-10 08:48:00,55.0,55.0,29.38,North,352,0.0,0.0,100,-99.99,,,-99.99,WSDL version 423,2013-09-10 12:48:00,
2013-09-10 08:53:00,55.2,55.2,29.38,NNW,338,0.0,0.0,100,-99.99,,,-99.99,WSDL version 423,2013-09-10 12:53:00,
2013-09-10 08:58:00,55.3,55.3,29.38,NNW,338,0.0,0.0,100,-99.99,,,-99.99,WSDL version 423,2013-09-10 12:58:00,
2013-09-10 09:03:00,55.5,55.5,29.38,NNW,338,0.0,0.0,100,-99.99,,,-99.99,WSDL version 423,2013-09-10 13:03:00,
2013-09-10 09:08:00,55.7,55.7,29.38,NNW,338,0.0,0.0,100,-99.99,,,-99.99,WSDL version 423,2013-09-10 13:08:00,
2013-09-10 09:13:00,55.8,55.8,29.38,NNW,338,0.0,0.0,100,-99.99,,,-99.99,WSDL version 423,2013-09-10 13:13:00,
2013-09-10 09:18:00,55.8,55.8,29.38,North,349,0.0,0.0,100,-99.99,,,-99.99,WSDL version 423,2013-09-10 13:18:00,
2013-09-10 09:23:00,55.8,55.8,29.38,North,349,0.0,0.0,100,-99.99,,,-99.99,WSDL version 423,2013-09-10 13:23:00,
2013-09-10 09:28:00,55.8,55.8,29.38,North,360,0.0,0.0,100,-99.99,,,-99.99,WSDL version 423,2013-09-10 13:28:00,
2013-09-10 09:33:00,55.9,55.9,29.38,North,360,0.0,0.0,100,-99.99,,,-99.99,WSDL version 423,2013-09-10 13:33:00,
2013-09-10 09:38:00,56.1,56.1,29.38,ENE,61,0.0,0.0,100,-99.99,,,-99.99,WSDL version 423,2013-09-10 13:38:00,
2013-09-10 09:43:00,56.1,56.1,29.38,NNW,341,0.0,0.0,100,-99.99,,,-99.99,WSDL version 423,2013-09-10 13:43:00,
2013-09-10 09:48:00,56.3,56.3,29.38,NNW,338,0.0,0.0,100,-99.99,,,-99.99,WSDL version 423,2013-09-10 13:48:00,
2013-09-10 09:53:00,56.3,56.3,29.38,NNW,338,0.0,0.0,100,-99.99,,,-99.99,WSDL version 423,2013-09-10 13:53:00,
2013-09-10 09:58:00,56.3,56.3,29.38,NNW,338,0.0,0.0,100,-99.99,,,-99.99,WSDL version 423,2013-09-10 13:58:00,
2013-09-10 10:03:00,56.4,56.4,29.38,NNW,338,0.0,0.0,100,-99.99,,,-99.99,WSDL version 423,2013-09-10 14:03:00,
2013-09-10 10:08:00,56.5,56.5,29.38,North,360,0.0,0.0,100,-99.99,,,-99.99,WSDL version 423,2013-09-10 14:08:00,
2013-09-10 10:13:00,56.7,56.7,29.38,NNE,29,0.0,0.0,100,-99.99,,,-99.99,WSDL version 423,2013-09-10 14:13:00,
2013-09-10 10:18:00,56.8,56.8,29.38,North,360,0.0,0.0,100,-99.99,,,-99.99,WSDL version 423,2013-09-10 14:18:00,
2013-09-10 10:23:00,56.9,56.9,29.41,North,360,0.0,0.0,100,-99.99,,,-99.99,WSDL version 423,2013-09-10 14:23:00,
2013-09-10 10:28:00,57.0,57.0,29.41,North,360,0.0,0.0,100,-99.99,,,-99.99,WSDL version 423,2013-09-10 14:28:00,
2013-09-10 10:33:00,57.2,57.2,29.41,North,360,0.0,0.0,100,-99.99,,,-99.99,WSDL version 423,2013-09-10 14:33:00,
2013-09-10 10:38:00,57.4,57.4,29.41,North,360,0.0,0.0,100,-99.99,,,-99.99,WSDL version 423,2013-09-10 14:38:00,
2013-09-10 10:43:00,57.4,57.4,29.41,North,360,0.0,0.0,100,-99.99,,,-99.99,WSDL version 423,2013-09-10 14:43:00,
2013-09-10 10:48:00,57.6,57.6,29.41,North,360,0.0,0.0,100,-99.99,,,-99.99,WSDL version 423,2013-09-10 14:48:00,
2013-09-10 10:53:00,57.6,57.6,29.41,North,360,0.0,0.0,100,-99.99,,,-99.99,WSDL version 423,2013-09-10 14:53:00,
2013-09-10 10:58:00,57.6,57.6,29.41,North,360,0.0,0.0,100,-99.99,,,-99.99,WSDL version 423,2013-09-10 14:58:00,
2013-09-10 11:03:00,57.6,57.6,29.41,North,360,0.0,0.0,100,-99.99,,,-99.99,WSDL version 423,2013-09-10 15:03:00,
2013-09-10 11:08:00,57.7,57.7,29.41,North,360,0.0,0.0,100,-99.99,,,-99.99,WSDL version 423,2013-09-10 15:08:00,
2013-09-10 11:13:00,57.9,57.9,29.41,North,360,0.0,0.0,100,-99.99,,,-99.99,WSDL version 423,2013-09-10 15:13:00,
2013-09-10 11:18:00,57.9,57.9,29.41,North,8,0.0,0.0,100,-99.99,,,-99.99,WSDL version 423,2013-09-10 15:18:00,
2013-09-10 11:23:00,58.0,58.0,29.38,North,360,0.0,0.0,100,-99.99,,,-99.99,WSDL version 423,2013-09-10 15:23:00,
2013-09-10 11:28:00,58.2,58.2,29.38,South,180,0.0,0.0,100,-99.99,,,-99.99,WSDL version 423,2013-09-10 15:28:00,
2013-09-10 11:33:00,58.3,58.3,29.38,NNW,338,0.0,0.0,100,-99.99,,,-99.99,WSDL version 423,2013-09-10 15:33:00,
2013-09-10 11:38:00,58.3,58.3,29.38,NW,323,0.0,0.0,100,-99.99,,,-99.99,WSDL version 423,2013-09-10 15:38:00,
2013-09-10 11:43:00,58.2,58.2,29.38,North,357,0.0,0.0,100,-99.99,,,-99.99,WSDL version 423,2013-09-10 15:43:00,
2013-09-10 11:48:00,58.2,58.2,29.38,North,358,0.0,0.0,100,-99.99,,,-99.99,WSDL version 423,2013-09-10 15:48:00,
2013-09-10 11:53:00,58.4,58.4,29.38,NNE,26,0.0,0.0,100,-99.99,,,-99.99,WSDL version 423,2013-09-10 15:53:00,
2013-09-10 11:58:00,58.6,58.5,29.38,SSW,203,0.0,0.0,100,-99.99,,,-99.99,WSDL version 423,2013-09-10 15:58:00,
2013-09-10 12:03:00,58.7,58.7,29.38,SW,236,0.0,0.0,100,-99.99,,,-99.99,WSDL version 423,2013-09-10 16:03:00,
2013-09-10 12:08:00,58.6,58.6,29.38,NW,310,0.0,0.0,100,-99.99,,,-99.99,WSDL version 423,2013-09-10 16:08:00,
2013-09-10 12:13:00,58.7,58.7,29.38,NW,323,0.0,0.0,100,-99.99,,,-99.99,WSDL version 423,2013-09-10 16:13:00,
2013-09-10 12:18:00,58.8,58.8,29.38,WNW,298,0.0,0.0,100,-99.99,,,-99.99,WSDL version 423,2013-09-10 16:18:00,
2013-09-10 12:23:00,58.8,58.8,29.41,WNW,293,0.0,0.0,100,-99.99,,,-99.99,WSDL version 423,2013-09-10 16:23:00,
2013-09-10 12:28:00,58.8,58.8,29.41,NNW,338,0.0,0.0,100,-99.99,,,-99.99,WSDL version 423,2013-09-10 16:28:00,
2013-09-10 12:38:00,59.1,59.1,29.38,NW,315,0.0,0.0,100,-99.99,,,-99.99,WSDL version 423,2013-09-10 16:38:00,
2013-09-10 12:43:00,59.2,59.2,29.38,WNW,293,0.0,0.0,100,-99.99,,,-99.99,WSDL version 423,2013-09-10 16:43:00,
2013-09-10 12:48:00,59.2,59.2,29.38,NW,315,0.0,0.0,100,-99.99,,,-99.99,WSDL version 423,2013-09-10 16:48:00,
2013-09-10 12:53:00,59.4,59.4,29.38,NNW,338,0.0,0.0,100,-99.99,,,-99.99,WSDL version 423,2013-09-10 16:53:00,
2013-09-10 12:58:00,-999.0,-99.9,29.38,North,349,0.0,0.0,-999,-99.99,,,-99.99,WSDL version 423,2013-09-10 16:58:00,
2013-09-10 13:03:00,60.3,60.3,29.38,NNW,338,0.0,0.0,100,-99.99,,,-99.99,WSDL version 423,2013-09-10 17:03:00,
2013-09-10 13:08:00,60.4,60.4,29.38,North,360,0.0,0.0,100,-99.99,,,-99.99,WSDL version 423,2013-09-10 17:08:00,
2013-09-10 13:13:00,60.9,60.9,29.38,NNW,338,0.0,0.0,100,-99.99,,,-99.99,WSDL version 423,2013-09-10 17:13:00,
2013-09-10 13:18:00,61.1,61.1,29.38,East,101,0.0,0.0,100,-99.99,,,-99.99,WSDL version 423,2013-09-10 17:18:00,
2013-09-10 13:23:00,61.3,61.3,29.38,WNW,300,0.0,0.0,100,-99.99,,,-99.99,WSDL version 423,2013-09-10 17:23:00,
2013-09-10 13:28:00,61.6,61.6,29.38,NW,315,0.0,0.0,100,-99.99,,,-99.99,WSDL version 423,2013-09-10 17:28:00,
2013-09-10 13:33:00,61.6,61.6,29.38,WSW,252,0.0,0.0,100,-99.99,,,-99.99,WSDL version 423,2013-09-10 17:33:00,
2013-09-10 13:38:00,-999.0,-99.9,29.38,NW,323,0.0,0.0,-999,-99.99,,,-99.99,WSDL version 423,2013-09-10 17:38:00,
2013-09-10 13:43:00,61.7,61.7,29.38,NW,315,0.0,0.0,100,-99.99,,,-99.99,WSDL version 423,2013-09-10 17:43:00,
2013-09-10 13:48:00,61.7,61.4,29.38,SSE,158,0.0,0.0,99,-99.99,,,-99.99,WSDL version 423,2013-09-10 17:48:00,
2013-09-10 13:53:00,-999.0,-99.9,29.38,NNW,338,0.0,0.0,-999,-99.99,,,-99.99,WSDL version 423,2013-09-10 17:53:00,
2013-09-10 13:58:00,61.4,61.0,29.38,NNW,338,0.0,0.0,99,-99.99,,,-99.99,WSDL version 423,2013-09-10 17:58:00,
2013-09-10 14:03:00,61.5,61.2,29.38,NW,315,0.0,0.0,99,-99.99,,,-99.99,WSDL version 423,2013-09-10 18:03:00,
2013-09-10 14:08:00,61.5,61.2,29.38,West,270,0.0,0.0,99,-99.99,,,-99.99,WSDL version 423,2013-09-10 18:08:00,
2013-09-10 14:13:00,61.6,61.3,29.38,NW,315,0.0,0.0,99,-99.99,,,-99.99,WSDL version 423,2013-09-10 18:13:00,
2013-09-10 14:18:00,61.5,61.2,29.38,SE,135,0.0,0.0,99,-99.99,,,-99.99,WSDL version 423,2013-09-10 18:18:00,
2013-09-10 14:28:00,61.7,61.4,29.38,NW,309,0.0,0.0,99,-99.99,,,-99.99,WSDL version 423,2013-09-10 18:28:00,
2013-09-10 14:33:00,61.5,61.1,29.38,North,0,0.0,0.0,98,-99.99,,,-99.99,WSDL version 423,2013-09-10 18:33:00,
2013-09-10 14:38:00,61.7,61.3,29.38,North,360,0.0,0.0,99,-99.99,,,-99.99,WSDL version 423,2013-09-10 18:38:00,
2013-09-10 14:43:00,61.7,61.1,29.38,NW,315,0.0,0.0,98,-99.99,,,-99.99,WSDL version 423,2013-09-10 18:43:00,
2013-09-10 14:48:00,61.7,61.1,29.38,NW,315,0.0,0.0,98,-99.99,,,-99.99,WSDL version 423,2013-09-10 18:48:00,
2013-09-10 14:53:00,61.9,61.2,29.38,NNE,23,0.0,0.0,98,-99.99,,,-99.99,WSDL version 423,2013-09-10 18:53:00,
2013-09-10 14:58:00,61.9,61.2,29.38,NNW,338,0.0,0.0,98,-99.99,,,-99.99,WSDL version 423,2013-09-10 18:58:00,
2013-09-10 15:05:00,61.7,61.1,29.38,NNW,330,0.0,0.0,98,-99.99,,,-99.99,WSDL version 423,2013-09-10 19:05:00,
2013-09-10 15:10:00,61.6,60.9,29.38,North,6,0.0,0.0,98,-99.99,,,-99.99,WSDL version 423,2013-09-10 19:10:00,
2013-09-10 15:15:00,61.3,60.7,29.38,North,356,0.0,0.0,98,-99.99,,,-99.99,WSDL version 423,2013-09-10 19:15:00,
2013-09-10 15:20:00,61.4,60.8,29.38,NW,311,0.0,0.0,99,-99.99,,,-99.99,WSDL version 423,2013-09-10 19:20:00,
2013-09-10 15:25:00,61.4,61.1,29.38,NW,326,0.0,0.0,99,-99.99,,,-99.99,WSDL version 423,2013-09-10 19:25:00,
2013-09-10 15:30:00,61.3,61.0,29.38,North,354,0.0,0.0,99,-99.99,,,-99.99,WSDL version 423,2013-09-10 19:30:00,
2013-09-10 15:35:00,61.2,60.9,29.38,NNW,338,0.0,0.0,99,-99.99,,,-99.99,WSDL version 423,2013-09-10 19:35:00,
2013-09-10 15:40:00,61.2,60.9,29.38,North,0,0.0,0.0,99,-99.99,,,-99.99,WSDL version 423,2013-09-10 19:40:00,
2013-09-10 15:45:00,61.3,61.1,29.38,NNW,338,0.0,0.0,100,-99.99,,,-99.99,WSDL version 423,2013-09-10 19:45:00,
2013-09-10 15:50:00,61.2,61.2,29.38,NNE,23,0.0,0.0,100,-99.99,,,-99.99,WSDL version 423,2013-09-10 19:50:00,
2013-09-10 15:55:00,61.1,61.1,29.38,North,360,0.0,0.0,100,-99.99,,,-99.99,WSDL version 423,2013-09-10 19:55:00,
2013-09-10 16:00:00,60.9,60.9,29.38,North,349,0.0,0.0,100,-99.99,,,-99.99,WSDL version 423,2013-09-10 20:00:00,
2013-09-10 16:05:00,60.8,60.8,29.38,North,349,0.0,0.0,100,-99.99,,,-99.99,WSDL version 423,2013-09-10 20:05:00,
2013-09-10 16:10:00,60.8,60.8,29.38,North,0,0.0,0.0,100,-99.99,,,-99.99,WSDL version 423,2013-09-10 20:10:00,
2013-09-10 16:15:00,60.8,60.8,29.38,NW,315,0.0,0.0,100,-99.99,,,-99.99,WSDL version 423,2013-09-10 20:15:00,
2013-09-10 16:20:00,60.8,60.8,29.38,North,360,0.0,0.0,100,-99.99,,,-99.99,WSDL version 423,2013-09-10 20:20:00,
2013-09-10 16:25:00,60.9,60.9,29.38,NW,315,0.0,0.0,100,-99.99,,,-99.99,WSDL version 423,2013-09-10 20:25:00,
2013-09-10 16:30:00,60.8,60.8,29.38,SE,135,0.0,0.0,100,-99.99,,,-99.99,WSDL version 423,2013-09-10 20:30:00,
2013-09-10 16:35:00,60.9,60.9,29.38,East,99,0.0,0.0,100,-99.99,,,-99.99,WSDL version 423,2013-09-10 20:35:00,
2013-09-10 16:40:00,60.8,60.8,29.38,North,-999,-999.0,-999.0,100,-99.99,,,-99.99,WSDL version 423,2013-09-10 20:40:00,
2013-09-10 16:50:00,60.6,60.6,29.38,NW,326,0.0,0.0,100,-99.99,,,-99.99,WSDL version 423,2013-09-10 20:50:00,
2013-09-10 16:55:00,60.4,60.4,29.38,South,180,0.0,0.0,100,-99.99,,,-99.99,WSDL version 423,2013-09-10 20:55:00,
2013-09-10 17:00:00,60.4,60.4,29.38,North,360,0.0,0.0,100,-99.99,,,-99.99,WSDL version 423,2013-09-10 21:00:00,
2013-09-10 17:05:00,60.4,60.4,29.38,NW,315,0.0,0.0,100,-99.99,,,-99.99,WSDL version 423,2013-09-10 21:05:00,
2013-09-10 17:10:00,60.4,60.4,29.38,NNW,338,0.0,0.0,100,-99.99,,,-99.99,WSDL version 423,2013-09-10 21:10:00,
2013-09-10 17:15:00,60.4,60.4,29.38,NW,323,0.0,0.0,100,-99.99,,,-99.99,WSDL version 423,2013-09-10 21:15:00,
2013-09-10 17:20:00,60.3,60.3,29.38,NNW,338,0.0,0.0,100,-99.99,,,-99.99,WSDL version 423,2013-09-10 21:20:00,
2013-09-10 17:25:00,60.3,60.3,29.38,NW,315,0.0,0.0,100,-99.99,,,-99.99,WSDL version 423,2013-09-10 21:25:00,
2013-09-10 17:30:00,60.3,60.3,29.38,NW,315,0.0,0.0,100,-99.99,,,-99.99,WSDL version 423,2013-09-10 21:30:00,
2013-09-10 17:35:00,60.3,60.3,29.38,North,-999,-999.0,-999.0,100,-99.99,,,-99.99,WSDL version 423,2013-09-10 21:35:00,
2013-09-10 17:40:00,-999.0,-99.9,29.38,NNE,28,0.0,0.0,-999,-99.99,,,-99.99,WSDL version 423,2013-09-10 21:40:00,
2013-09-10 17:45:00,-999.0,-99.9,29.38,North,-999,-999.0,-999.0,-999,-99.99,,,-99.99,WSDL version 423,2013-09-10 21:45:00,
2013-09-10 17:50:00,60.4,60.4,29.38,NNE,23,0.0,0.0,100,-99.99,,,-99.99,WSDL version 423,2013-09-10 21:50:00,
2013-09-10 17:55:00,-999.0,-99.9,29.38,North,-999,-999.0,-999.0,-999,-99.99,,,-99.99,WSDL version 423,2013-09-10 21:55:00,
2013-09-10 18:00:00,60.4,60.4,29.38,NE,45,0.0,0.0,100,-99.99,,,-99.99,WSDL version 423,2013-09-10 22:00:00,
2013-09-10 18:05:00,-999.0,-99.9,29.38,NE,45,0.0,0.0,-999,-99.99,,,-99.99,WSDL version 423,2013-09-10 22:05:00,
2013-09-10 18:10:00,60.5,60.5,29.38,SE,135,0.0,0.0,100,-99.99,,,-99.99,WSDL version 423,2013-09-10 22:10:00,
2013-09-10 18:15:00,-999.0,-99.9,29.38,North,-999,-999.0,-999.0,-999,-99.99,,,-99.99,WSDL version 423,2013-09-10 22:15:00,
2013-09-10 18:20:00,-999.0,-99.9,29.38,North,0,0.0,0.0,-999,-99.99,,,-99.99,WSDL version 423,2013-09-10 22:20:00,
2013-09-10 18:25:00,60.6,60.6,29.38,North,-999,-999.0,-999.0,100,-99.99,,,-99.99,WSDL version 423,2013-09-10 22:25:00,
2013-09-10 18:30:00,60.6,60.6,29.38,NNW,338,0.0,0.0,100,-99.99,,,-99.99,WSDL version 423,2013-09-10 22:30:00,
2013-09-10 18:40:00,60.4,60.4,29.38,North,360,0.0,0.0,100,-99.99,,,-99.99,WSDL version 423,2013-09-10 22:40:00,
2013-09-10 18:45:00,60.6,60.6,29.38,ESE,113,0.0,0.0,100,-99.99,,,-99.99,WSDL version 423,2013-09-10 22:45:00,
2013-09-10 18:50:00,60.4,60.4,29.38,North,-999,-999.0,-999.0,100,-99.99,,,-99.99,WSDL version 423,2013-09-10 22:50:00,
2013-09-10 18:55:00,60.4,60.4,29.35,North,-999,-999.0,-999.0,100,-99.99,,,-99.99,WSDL version 423,2013-09-10 22:55:00,
2013-09-10 19:00:00,60.3,60.3,29.35,NNW,338,0.0,0.0,100,-99.99,,,-99.99,WSDL version 423,2013-09-10 23:00:00,
2013-09-10 19:05:00,60.3,60.3,29.35,NNW,338,0.0,0.0,100,-99.99,,,-99.99,WSDL version 423,2013-09-10 23:05:00,
2013-09-10 19:10:00,60.1,60.1,29.38,WNW,293,0.0,0.0,100,-99.99,,,-99.99,WSDL version 423,2013-09-10 23:10:00,
2013-09-10 19:15:00,60.1,60.1,29.38,NNW,338,0.0,0.0,100,-99.99,,,-99.99,WSDL version 423,2013-09-10 23:15:00,
2013-09-10 19:20:00,60.1,60.1,29.38,NNW,345,0.0,0.0,100,-99.99,,,-99.99,WSDL version 423,2013-09-10 23:20:00,
2013-09-10 19:25:00,60.1,60.1,29.38,NNW,338,0.0,0.0,100,-99.99,,,-99.99,WSDL version 423,2013-09-10 23:25:00,
2013-09-10 19:30:00,60.0,60.0,29.38,North,360,0.0,0.0,100,-99.99,,,-99.99,WSDL version 423,2013-09-10 23:30:00,
2013-09-10 19:35:00,60.1,60.1,29.38,North,-999,-999.0,-999.0,100,-99.99,,,-99.99,WSDL version 423,2013-09-10 23:35:00,
2013-09-10 19:40:00,60.1,60.1,29.38,North,360,0.0,0.0,100,-99.99,,,-99.99,WSDL version 423,2013-09-10 23:40:00,
2013-09-10 19:45:00,60.0,60.0,29.38,NNW,338,0.0,0.0,100,-99.99,,,-99.99,WSDL version 423,2013-09-10 23:45:00,
2013-09-10 19:50:00,59.9,59.9,29.38,North,-999,-999.0,-999.0,100,-99.99,,,-99.99,WSDL version 423,2013-09-10 23:50:00,
2013-09-10 19:55:00,60.1,60.1,29.38,North,-999,-999.0,-999.0,100,-99.99,,,-99.99,WSDL version 423,2013-09-10 23:55:00,
2013-09-10 20:00:00,59.9,59.9,29.38,North,-999,-999.0,-999.0,100,-99.99,,,-99.99,WSDL version 423,2013-09-11 00:00:00,
2013-09-10 20:05:00,59.9,59.9,29.38,NNW,343,0.0,0.9,100,-99.99,,,-99.99,WSDL version 423,2013-09-11 00:05:00,
2013-09-10 20:10:00,59.9,59.9,29.38,North,11,0.0,0.9,100,-99.99,,,-99.99,WSDL version 423,2013-09-11 00:10:00,
2013-09-10 20:15:00,59.8,59.8,29.38,North,360,0.0,0.0,100,-99.99,,,-99.99,WSDL version 423,2013-09-11 00:15:00,
2013-09-10 20:20:00,59.7,59.7,29.38,North,349,0.0,0.0,100,-99.99,,,-99.99,WSDL version 423,2013-09-11 00:20:00,
2013-09-10 20:25:00,59.7,59.7,29.38,NNW,338,0.0,0.0,100,-99.99,,,-99.99,WSDL version 423,2013-09-11 00:25:00,
2013-09-10 20:30:00,59.7,59.7,29.38,North,-999,-999.0,-999.0,100,-99.99,,,-99.99,WSDL version 423,2013-09-11 00:30:00,
2013-09-10 20:35:00,59.7,59.7,29.38,WNW,293,0.0,0.0,100,-99.99,,,-99.99,WSDL version 423,2013-09-11 00:35:00,
2013-09-10 20:40:00,59.7,59.7,29.38,WNW,293,0.0,0.0,100,-99.99,,,-99.99,WSDL version 423,2013-09-11 00:40:00,
2013-09-10 20:45:00,59.7,59.7,29.38,North,-999,-999.0,-999.0,100,-99.99,,,-99.99,WSDL version 423,2013-09-11 00:45:00,
2013-09-10 20:50:00,59.7,59.7,29.38,North,-999,-999.0,-999.0,100,-99.99,,,-99.99,WSDL version 423,2013-09-11 00:50:00,
2013-09-10 20:55:00,59.7,59.7,29.38,North,0,0.0,0.0,100,-99.99,,,-99.99,WSDL version 423,2013-09-11 00:55:00,
2013-09-10 21:00:00,59.7,59.7,29.38,North,0,0.0,0.0,100,-99.99,,,-99.99,WSDL version 423,2013-09-11 01:00:00,
2013-09-10 21:05:00,59.7,59.7,29.38,NNW,338,0.0,0.0,100,-99.99,,,-99.99,WSDL version 423,2013-09-11 01:05:00,
2013-09-10 21:10:00,59.7,59.7,29.38,NNW,338,0.0,0.0,100,-99.99,,,-99.99,WSDL version 423,2013-09-11 01:10:00,
2013-09-10 21:15:00,-999.0,-99.9,29.38,NNW,338,0.0,0.0,-999,-99.99,,,-99.99,WSDL version 423,2013-09-11 01:15:00,
2013-09-10 21:20:00,-999.0,-99.9,29.38,NNW,338,0.0,0.0,-999,-99.99,,,-99.99,WSDL version 423,2013-09-11 01:20:00,
2013-09-10 21:25:00,-999.0,-99.9,29.38,North,-999,-999.0,-999.0,-999,-99.99,,,-99.99,WSDL version 423,2013-09-11 01:25:00,
2013-09-10 21:30:00,59.7,59.7,29.38,North,-999,-999.0,-999.0,100,-99.99,,,-99.99,WSDL version 423,2013-09-11 01:30:00,
2013-09-10 21:35:00,59.7,59.7,29.38,NNW,338,0.0,0.0,100,-99.99,,,-99.99,WSDL version 423,2013-09-11 01:35:00,
2013-09-10 21:40:00,59.7,59.7,29.38,North,-999,-999.0,-999.0,100,-99.99,,,-99.99,WSDL version 423,2013-09-11 01:40:00,
2013-09-10 21:45:00,59.7,59.7,29.38,NNW,338,0.0,0.0,100,-99.99,,,-99.99,WSDL version 423,2013-09-11 01:45:00,
2013-09-10 21:50:00,59.7,59.7,29.38,North,-999,-999.0,-999.0,100,-99.99,,,-99.99,WSDL version 423,2013-09-11 01:50:00,
2013-09-10 21:55:00,59.7,59.7,29.38,NNW,338,0.0,0.0,100,-99.99,,,-99.99,WSDL version 423,2013-09-11 01:55:00,
2013-09-10 22:00:00,59.7,59.7,29.38,NNW,338,0.0,0.0,100,-99.99,,,-99.99,WSDL version 423,2013-09-11 02:00:00,
2013-09-10 22:10:00,59.7,59.7,29.35,NNW,338,0.0,0.0,100,-99.99,,,-99.99,WSDL version 423,2013-09-11 02:10:00,
2013-09-10 22:15:00,59.7,59.7,29.35,NNW,338,0.0,0.0,100,-99.99,,,-99.99,WSDL version 423,2013-09-11 02:15:00,
2013-09-10 22:20:00,59.7,59.7,29.35,North,360,0.0,0.0,100,-99.99,,,-99.99,WSDL version 423,2013-09-11 02:20:00,
2013-09-10 22:25:00,59.7,59.7,29.35,North,360,0.0,0.0,100,-99.99,,,-99.99,WSDL version 423,2013-09-11 02:25:00,
2013-09-10 22:30:00,59.7,59.7,29.35,North,360,0.0,0.0,100,-99.99,,,-99.99,WSDL version 423,2013-09-11 02:30:00,
2013-09-10 22:35:00,59.7,59.7,29.35,North,360,0.0,0.0,100,-99.99,,,-99.99,WSDL version 423,2013-09-11 02:35:00,
2013-09-10 22:40:00,59.7,59.7,29.35,North,11,0.0,0.0,100,-99.99,,,-99.99,WSDL version 423,2013-09-11 02:40:00,
2013-09-10 22:45:00,59.7,59.7,29.35,NNE,18,0.0,0.0,100,-99.99,,,-99.99,WSDL version 423,2013-09-11 02:45:00,
2013-09-10 22:50:00,59.7,59.7,29.35,NW,318,0.0,0.0,100,-99.99,,,-99.99,WSDL version 423,2013-09-11 02:50:00,
2013-09-10 22:55:00,59.7,59.7,29.35,NNW,340,0.0,0.0,100,-99.99,,,-99.99,WSDL version 423,2013-09-11 02:55:00,
2013-09-10 23:00:00,59.7,59.7,29.35,NNW,338,0.0,0.0,100,-99.99,,,-99.99,WSDL version 423,2013-09-11 03:00:00,
2013-09-10 23:05:00,59.7,59.7,29.35,NNW,338,0.0,0.0,100,-99.99,,,-99.99,WSDL version 423,2013-09-11 03:05:00,
2013-09-10 23:10:00,59.7,59.7,29.35,NNW,338,0.0,0.0,100,-99.99,,,-99.99,WSDL version 423,2013-09-11 03:10:00,
2013-09-10 23:15:00,59.7,59.7,29.35,SSW,203,0.0,0.0,100,-99.99,,,-99.99,WSDL version 423,2013-09-11 03:15:00,
2013-09-10 23:20:00,59.7,59.7,29.35,NW,315,0.0,0.0,100,-99.99,,,-99.99,WSDL version 423,2013-09-11 03:20:00,
2013-09-10 23:25:00,59.7,59.7,29.35,NW,315,0.0,0.0,100,-99.99,,,-99.99,WSDL version 423,2013-09-11 03:25:00,
2013-09-10 23:30:00,59.7,59.7,29.35,NW,323,0.0,0.0,100,-99.99,,,-99.99,WSDL version 423,2013-09-11 03:30:00,
2013-09-10 23:35:00,59.7,59.7,29.35,NNE,17,0.0,0.0,100,-99.99,,,-99.99,WSDL version 423,2013-09-11 03:35:00,
2013-09-10 23:40:00,59.7,59.7,29.35,NNE,25,0.0,0.0,100,-99.99,,,-99.99,WSDL version 423,2013-09-11 03:40:00,
2013-09-10 23:45:00,59.7,59.7,29.35,NNE,15,0.0,0.0,100,-99.99,,,-99.99,WSDL version 423,2013-09-11 03:45:00,
2013-09-10 23:50:00,59.6,59.6,29.35,North,360,0.0,0.0,100,-99.99,,,-99.99,WSDL version 423,2013-09-11 03:50:00,
2013-09-10 23:55:00,59.6,59.6,29.35,North,5,0.0,0.0,100,-99.99,,,-99.99,WSDL version 423,2013-09-11 03:55:00,